DateTimeUTC,F1_A11,F1_S11,BsB_S11,BsG_S11,BsR_S11,BbsB_S11,BbsG_S11,BbsR_S11,BaB_A11,BaG_A11,BaR_A11,Tu_S11,T_S11,Uu_S11,U_S11,P_S11,T1_A11
2021-04-02T13:00:00Z,00000200,20000000,,,,,,,-000.88,-000.64,-000.89,16.3,23.4,02.3,01.5,0650.2,30.9
2021-04-02T13:01:00Z,00000200,20000000,,,,,,,-144.00,0000.00,0000.18,16.3,23.4,02.0,01.3,0650.2,30.9
2021-04-02T13:02:00Z,00000200,20000000,,,,,,,0144.21,0000.57,0000.43,16.3,23.4,02.0,01.3,0650.2,30.9
2021-04-02T13:03:00Z,00000200,60000000,,,,,,,-001.61,-001.78,-001.47,16.3,23.4,02.0,01.3,0650.2,30.9
2021-04-02T13:04:00Z,00000200,41000000,0001.27,0000.21,0000.20,0000.45,0000.09,0000.10,-000.48,-000.38,0000.15,16.4,23.2,01.5,01.0,0651.3,30.9
2021-04-02T13:05:00Z,00000200,01000000,0001.21,0000.37,0000.55,0000.30,0000.04,0000.33,0000.33,0000.59,0000.02,16.5,23.1,01.4,00.9,0651.4,30.9
2021-04-02T13:06:00Z,00000200,01000000,0000.53,0000.31,0000.47,-000.45,-000.07,-000.01,-001.05,-000.84,-000.68,16.4,23.1,01.2,00.8,0651.5,30.9
2021-04-02T13:07:00Z,00000200,01000000,0000.00,0000.52,0000.14,0000.17,0000.20,0000.12,0000.43,-000.21,-000.08,16.4,23.1,01.2,00.8,0651.5,30.9
2021-04-02T13:08:00Z,00000200,01000000,0000.39,0000.38,0000.40,0000.49,0000.23,0000.02,-000.52,-000.02,0000.31,16.4,23.1,00.9,00.6,0651.5,30.9
2021-04-02T13:09:00Z,00000200,01000000,0001.17,0000.63,0000.47,0000.23,0000.22,0000.20,0000.08,-000.33,-000.36,16.4,23.1,00.9,00.6,0651.4,30.9
2021-04-02T13:10:00Z,00000200,01000000,0000.91,0000.29,0000.51,0000.81,0000.08,0000.25,0000.45,0001.15,0000.48,16.5,23.1,00.8,00.5,0651.5,30.9
2021-04-02T13:11:00Z,00000200,01000000,0000.97,0000.32,0000.35,0000.32,-000.13,0000.22,-000.21,-000.93,-000.32,16.5,23.1,00.8,00.6,0651.5,30.9
2021-04-02T13:12:00Z,00000200,01000000,0000.89,0000.22,0000.20,0000.18,0000.19,0000.02,0000.01,0000.43,0000.10,16.6,23.1,00.8,00.6,0651.5,30.9
2021-04-02T13:13:00Z,00000200,01000000,0001.10,0000.45,0000.44,-000.26,-000.19,0000.03,0000.07,0000.20,0000.20,16.6,23.2,00.7,00.5,0651.6,30.9
2021-04-02T13:14:00Z,00000200,01000000,0000.88,0000.48,0000.37,0000.19,0000.27,-000.02,-000.18,-000.45,-000.16,16.6,23.2,00.7,00.5,0651.5,30.9
2021-04-02T13:15:00Z,00000200,01000000,0001.21,0000.48,0000.36,0000.42,0000.17,0000.01,0000.07,-000.23,-000.19,16.6,23.2,00.7,00.4,0651.7,30.9
2021-04-02T13:16:00Z,00000200,01000000,0001.35,0000.48,0000.77,0000.13,0000.23,0000.01,0000.04,0000.40,0000.32,16.6,23.2,00.6,00.4,0651.7,30.9
2021-04-02T13:17:00Z,00000200,01000000,0000.75,0000.21,0000.44,-000.13,0000.06,0000.07,-000.17,-000.05,0000.13,16.6,23.2,00.6,00.4,0651.6,30.9
2021-04-02T13:18:00Z,00000200,01000000,0000.43,0000.56,0000.26,0000.19,0000.09,0000.02,-000.03,-000.23,-000.18,16.6,23.2,00.5,00.4,0651.7,30.9
2021-04-02T13:19:00Z,00000200,01000000,0000.73,0000.56,0000.39,0000.35,-000.02,0000.23,-016.97,0000.65,0000.56,16.6,23.2,00.5,00.3,0651.6,30.9
2021-04-02T13:20:00Z,00000200,01000000,0000.86,0000.50,0000.17,0000.12,-000.06,-000.09,0017.86,0000.19,0000.05,16.6,23.2,00.5,00.3,0651.8,30.9
2021-04-02T13:21:00Z,00000200,01000000,0000.54,0000.64,0000.50,0000.62,0000.06,-000.09,0000.37,0000.24,0000.31,16.6,23.2,00.5,00.3,0651.8,30.9
2021-04-02T13:22:00Z,00000200,01000000,0000.82,0000.60,0000.38,0000.64,0000.14,0000.05,0000.35,0000.93,0000.34,16.6,23.1,00.7,00.5,0651.6,30.9
2021-04-02T13:23:00Z,00000200,01000000,0000.84,0000.75,0000.03,0000.59,0000.14,0000.06,0000.61,-000.11,0000.33,16.6,23.2,00.6,00.4,0651.7,30.9
2021-04-02T13:24:00Z,00000200,01000000,0000.96,0000.77,0000.52,0000.72,0000.44,0000.54,-000.51,-000.22,-000.24,16.6,23.1,00.5,00.3,0651.6,30.9
2021-04-02T13:25:00Z,00000200,01000000,0001.25,0000.52,0000.73,-000.20,-000.02,-000.05,0000.07,0000.08,-000.03,16.6,23.1,00.4,00.3,0651.6,30.9
2021-04-02T13:26:00Z,00000200,01000000,0001.16,0000.55,0000.37,0000.35,0000.01,-000.15,0000.32,0000.29,0000.08,16.7,23.2,00.5,00.3,0651.7,30.9
2021-04-02T13:27:00Z,00000200,01000000,0001.15,0000.32,0000.61,0000.57,0000.20,-000.11,-000.20,-000.12,-000.14,16.7,23.2,00.5,00.3,0651.7,30.9
2021-04-02T13:28:00Z,00000200,01000000,0000.71,0000.36,0000.80,0000.51,0000.16,0000.24,-000.44,-000.16,0000.14,16.7,23.2,00.3,00.2,0651.7,30.9
2021-04-02T13:29:00Z,00000200,01000000,0000.92,0000.50,0000.23,0000.16,0000.20,0000.21,0000.26,0000.26,-000.01,16.7,23.2,00.3,00.2,0651.6,30.9
2021-04-02T13:30:00Z,00000200,01000000,0001.38,0000.65,0000.49,0000.21,0000.33,-000.06,0000.48,0000.21,0000.36,16.7,23.2,00.3,00.2,0651.7,30.9
2021-04-02T13:31:00Z,00000200,01000000,0000.53,0000.47,0000.13,0000.10,-000.10,-000.00,-000.48,-000.31,-000.22,16.7,23.1,00.2,00.1,0651.7,30.9
2021-04-02T13:32:00Z,00000200,01000000,0001.08,0000.39,0000.54,0000.27,0000.23,0000.05,0000.64,0000.23,0000.06,16.7,23.2,00.2,00.2,0651.7,30.9
2021-04-02T13:33:00Z,00000200,01000000,0001.30,0000.82,0000.51,0000.36,0000.07,-000.11,-000.21,0000.20,0000.10,16.7,23.2,00.2,00.1,0651.7,30.9
2021-04-02T13:34:00Z,00000200,01000000,0000.91,0000.63,0000.42,0000.22,0000.27,0000.02,0000.04,0000.05,0000.15,16.6,23.2,00.2,00.1,0651.7,30.9
2021-04-02T13:35:00Z,00000200,01000000,0000.75,0000.45,0000.40,0000.13,0000.20,-000.05,0000.29,0000.01,0000.02,16.6,23.2,00.1,00.1,0651.7,30.9
2021-04-02T13:36:00Z,00000200,01000000,0001.37,0000.84,0000.51,0000.61,0000.03,0000.03,0000.25,0000.27,0000.19,16.6,23.2,00.2,00.1,0651.6,30.9
2021-04-02T13:37:00Z,00000200,01000000,0000.90,0000.37,0000.65,0000.13,0000.28,0000.30,0000.13,0000.17,0000.35,16.6,23.2,00.2,00.1,0651.6,30.9
2021-04-02T13:38:00Z,00000200,01000000,0000.45,0000.35,0000.13,0000.16,0000.23,0000.02,-000.15,-000.61,-000.35,16.6,23.2,00.1,00.1,0651.7,30.9
2021-04-02T13:39:00Z,00000200,01000000,0001.37,0000.38,0000.25,0000.57,0000.22,-000.04,0000.31,0000.91,0000.52,16.6,23.2,00.1,00.0,0651.7,30.9
2021-04-02T13:40:00Z,00000200,01000000,0001.08,0000.51,0000.38,0000.50,0000.19,0000.16,0000.28,-000.15,-000.18,16.6,23.1,00.1,00.1,0651.7,30.9
2021-04-02T13:41:00Z,00000200,01000000,0001.04,0000.49,0000.39,0000.31,0000.08,-000.05,0000.09,0000.58,0000.31,16.6,23.1,00.2,00.1,0651.6,30.9
2021-04-02T13:42:00Z,00000200,01000000,0001.15,0000.39,0000.40,0000.74,0000.11,0000.04,0000.08,-000.49,-000.18,16.6,23.1,00.1,00.1,0651.6,30.9
2021-04-02T13:43:00Z,00000200,01000000,0001.75,0000.31,0000.31,0000.28,0000.05,0000.23,-000.31,0000.11,0000.03,16.5,23.1,00.1,00.1,0651.7,30.9
2021-04-02T13:44:00Z,00000200,01000000,0000.89,0000.67,0000.29,-000.38,0000.15,0000.00,0000.62,0000.20,-000.01,16.5,23.1,00.1,00.0,0651.8,30.9
2021-04-02T13:45:00Z,00000200,01000000,0001.45,0000.33,0000.57,-000.15,0000.33,0000.08,-000.11,0000.10,-000.01,16.5,23.1,00.0,00.0,0651.6,30.9
2021-04-02T13:46:00Z,00000200,01000000,0001.03,0000.85,0000.70,0000.31,0000.27,0000.38,0000.08,0000.15,0000.25,16.5,23.1,00.0,00.0,0651.7,30.9
2021-04-02T13:47:00Z,00000200,01000000,0000.89,0000.66,0000.26,0000.39,0000.19,0000.06,0000.21,0000.69,0000.35,16.5,23.1,00.0,00.0,0651.8,30.9
2021-04-02T13:48:00Z,00000200,01000000,0000.81,0000.49,0000.29,0000.47,0000.22,-000.00,0000.19,0000.03,0000.14,16.5,23.1,00.0,00.0,0651.6,30.9
2021-04-02T13:49:00Z,00000200,01000000,0000.69,0000.48,0000.53,0000.33,0000.26,0000.31,0000.67,0000.32,0000.37,16.5,23.1,00.1,00.0,0651.6,30.9
2021-04-02T13:50:00Z,00000200,01000000,0001.23,0000.71,0000.59,0000.44,0000.02,-000.08,0000.63,0000.04,0000.21,16.5,23.1,00.0,00.0,0651.8,30.9
2021-04-02T13:51:00Z,00000200,01000000,0000.98,0000.59,0000.38,0000.30,0000.28,0000.12,0000.18,0000.55,0000.13,16.5,23.1,00.1,00.1,0651.8,30.9
2021-04-02T13:52:00Z,00000200,01000000,0000.69,0000.64,0000.43,0000.52,0000.28,0000.12,0000.50,0000.31,0000.59,16.5,23.1,00.1,00.1,0651.8,30.9
2021-04-02T13:53:00Z,00000200,01000000,0001.20,0000.66,0000.74,0000.48,0000.20,0000.02,0000.07,0000.04,0000.01,16.5,23.1,00.1,00.1,0651.8,30.9
2021-04-02T13:54:00Z,00000200,01000000,0001.35,0000.31,0000.48,0000.11,0000.11,0000.27,0000.23,0000.40,0000.01,16.5,23.1,00.1,00.0,0651.8,30.9
2021-04-02T13:55:00Z,00000200,01000000,0000.92,0000.50,0000.48,0000.45,0000.14,0000.00,0000.16,0000.14,0000.73,16.5,23.1,00.1,00.1,0651.7,30.9
2021-04-02T13:56:00Z,00000200,01000000,0000.78,0000.12,0000.57,0000.49,0000.18,0000.20,0000.17,0000.14,-000.56,16.6,23.1,00.1,00.1,0651.7,30.9
2021-04-02T13:57:00Z,00000200,41000000,,,,,,,0002.17,0002.34,0002.21,16.6,23.2,,00.0,0651.8,30.9
2021-04-02T13:58:00Z,00000200,61000000,,,,,,,-000.61,-001.12,-000.96,16.5,23.3,00.1,00.1,0650.7,30.9
2021-04-02T13:59:00Z,00000200,21000000,,,,,,,-000.98,-000.65,-000.10,16.5,23.4,,00.0,0650.7,30.9
